Location: Morgantown
(40.9734°N, 80.6323°W)
Time: 00:26:51
(UTC+00:00)

CSL-04 Rocket - Pass Details

Date: 29 October 2020
Orbit: 805 x 861 km, 98.9° (Epoch: 03 December)

Event Time Altitude Azimuth Distance (km) Brightness Sun altitude
Exits shadow 23:39:11 - 137° (SE) 2,825 6.1 -15.2°
Reaches altitude 10° 23:40:07 10° 133° (SE) 2,489 5.8 -15.4°
Maximum altitude 23:45:09 37° 68° (ENE) 1,306 4.2 -16.3°
Drops below altitude 10° 23:50:09 10° 3° (N) 2,483 6.1 -17.3°
Sets 23:52:40 0° 355° (N) 3,415 6.9 -17.7°
